P 284              H    8.57          G   0.15           U   7                  
Residuals in seconds of arc
K198U  W84  0.1-  0.1+    K199S  W84  0.0   0.1+    K21A6  W84  0.0   0.0  
K198U  W84  0.0   0.0     K2199  W84  0.0   0.0     K21A6  W84  0.0   0.0  
K199S  W84  0.0   0.1-    K2199  W84  0.0   0.0     
2020 UA74                                                                       
Epoch 2023 Sept. 13.0 TT = JDT 2460200.5                Pike                    
M  59.67942              (2000.0)            P               Q                  
n   0.00335099     Peri.  169.88633     +0.28289197     +0.95847637             
a  44.2270229      Node   116.53896     -0.88279058     +0.27485785             
e   0.0849927      Incl.    2.30548     -0.37503724     +0.07600137             
P 294              H    8.27          G   0.15           U   6                  
Residuals in seconds of arc
K199R  W84  0.0   0.0     K20AJ  W84  0.0   0.0     K21A2  W84  0.1+  0.0  
K199R  W84  0.1-  0.0     K20AJ  W84  0.0   0.0     K21A2  W84  0.1-  0.0  
K20AG  W84  0.0   0.0     K219D  W84  0.0   0.2+    
K20AG  W84  0.0   0.0     K219D  W84  0.0   0.1-    
2021 RL237                                                                      
Epoch 2023 Sept. 13.0 TT = JDT 2460200.5                Pike                    
M 358.15630              (2000.0)            P               Q                  
n   0.00130882     Peri.    7.19121     +0.99621715     -0.08634609             
a  82.7717546      Node   357.69333     +0.06257305     +0.79091701             
e   0.5524799      Incl.   14.07047     +0.06029930     +0.60580082             
P 753              H   10.43          G   0.15           U   6                  
Residuals in seconds of arc
K199R  W84  0.0   0.3+    K20AG  W84  0.2+  0.3+    K21A7  W84  0.1+  0.1- 
K199R  W84  0.1-  0.2-    K2195  W84  0.0   0.0     K21A7  W84  0.2-  0.1+ 
K20AG  W84  0.1-  0.4-    K2195  W84  0.0   0.1+    
2021 RM237                                                                      
Epoch 2023 Sept. 13.0 TT = JDT 2460200.5                Pike                    
M 184.62635              (2000.0)            P               Q                  
n   0.00395820     Peri.   10.45317     -0.99197104     -0.11059169             
a  39.5795867      Node   162.83193     +0.09575462     -0.97366089             
e   0.1853322      Incl.   11.99451     +0.08261063     -0.19938394             
P 249              H    8.37          G   0.15           U   7                  
Residuals in seconds of arc
K199S  W84  0.0   0.1-    K20AK  W84  0.1+  0.1+    K21A6  W84  0.0   0.1- 
K199S  W84  0.0   0.1+    K2199  W84  0.1+  0.1+    K21A6  W84  0.0   0.0  
K20AK  W84  0.1-  0.0     K2199  W84  0.1-  0.1-    
2021 RN237                                                                      
Epoch 2023 Sept. 13.0 TT = JDT 2460200.5                Pike                    
M  23.90255              (2000.0)            P               Q                  
n   0.00317168     Peri.  272.99262     +0.86184104     +0.50577194             
a  45.8786083      Node    56.62773     -0.44552624     +0.79054011             
e   0.0769823      Incl.    2.59058     -0.24235591     +0.34531302             
P 311              H    9.20          G   0.15           U   6                  
Residuals in seconds of arc
K198U  W84  0.3-  0.2-    K20AI  W84  0.1-  0.2-    K2199  W84  0.0   0.2+ 
K198U  W84  0.2+  0.3+    K20AI  W84  0.0   0.0     K2199  W84  0.1-  0.1+ 
K199S  W84  0.2+  0.0     K20AK  W84  0.0   0.1+    K21A6  W84  0.1+  0.2- 
K199S  W84  0.3-  0.0     K20AK  W84  0.2+  0.3-    K21A6  W84  0.1-  0.1+ 
M. P. C. Staff               (C) Copyright 2023 MPC           M.P.E.C. 2023-W155
    
    
More information about the Iaude
mailing list